Home > Weather > Buffalo > Past weeks

Flag for USA Past Weather in Buffalo, New York, USA — Yesterday and Last 2 Weeks

Now
79 °F

Passing clouds.


Feels Like: 81 °F
Forecast: 68 / 83 °F
Wind: 12 mph from Southwest

Location: Greater Buffalo International Airport

Current Time: Jul 27, 2016 at 11:35:19 AM

Latest Report: Jul 27, 2016 at 10:54 AM


Visibility: 10 mi

Pressure: 29.98 "Hg

Humidity: 67%

Dew Point: 67 °F

Location of BuffaloLocation

Past Weather in Buffalo — Graph

°F

Buffalo Temperature Yesterday

Maximum temperature yesterday: 80 °F (at 1:54 PM)
Minimum temperature yesterday: 67 °F (at 5:54 AM)
Average temperature yesterday: 74 °F

High & Low Weather Summary for the Past Weeks

 TemperatureHumidityPressure
High89 °F (Jul 12, 2:54 PM)94% (Jul 25, 8:04 AM)30.27 "Hg (Jul 25, 8:04 AM)
Low55 °F (Jul 20, 5:54 AM)16% (Jul 17, 1:54 PM)29.76 "Hg (Jul 14, 6:54 AM)
Average75 °F62%29.98 "Hg
* Reported Jul 12 9:54 AM — Jul 27 9:54 AM, Buffalo, Weather by CustomWeather, © 2016

Note: Actual official high and low records may vary slightly from our data, if they occured in-between our weather recording intervals... More about our weather records

Advertising

Buffalo Weather History for the Previous 24 Hours

Scroll right to see more
 ConditionsComfort  
Time TempWeatherWind HumidityBarometerVisibility
9:54 AM
Wed, Jul 27
77 °FPassing clouds.13 mph69%29.98 "Hg10 mi
8:54 AM75 °FPassing clouds.10 mph74%29.99 "Hg10 mi
7:54 AM70 °FPassing clouds.9 mph81%29.98 "Hg10 mi
6:54 AM67 °FPassing clouds.7 mph85%29.99 "Hg10 mi
5:54 AM66 °FPassing clouds.6 mph87%29.97 "Hg10 mi
4:54 AM66 °FPassing clouds.6 mph87%29.97 "Hg10 mi
3:54 AM68 °FPassing clouds.7 mph84%29.97 "Hg10 mi
2:54 AM68 °FClear.7 mph87%29.97 "Hg10 mi
1:54 AM69 °FClear.7 mph84%29.97 "Hg10 mi
12:54 AM70 °FClear.6 mph81%29.98 "Hg10 mi
11:54 PM
Tue, Jul 26
73 °FPassing clouds.9 mph74%29.97 "Hg10 mi
10:54 PM74 °FPassing clouds.9 mph69%29.97 "Hg10 mi
9:54 PM74 °FPassing clouds.8 mph71%29.97 "Hg10 mi
8:54 PM74 °FPassing clouds.8 mph69%29.97 "Hg10 mi
7:54 PM76 °FPassing clouds.13 mph64%29.97 "Hg10 mi
6:54 PM78 °FPassing clouds.13 mph56%29.96 "Hg10 mi
5:54 PM79 °FPassing clouds.13 mph56%29.97 "Hg10 mi
4:54 PM80 °FPassing clouds.14 mph56%29.97 "Hg10 mi
3:54 PM79 °FPassing clouds.12 mph58%29.98 "Hg10 mi
2:54 PM79 °FPassing clouds.12 mph58%29.99 "Hg10 mi
1:54 PM80 °FPassing clouds.13 mph56%30.00 "Hg10 mi
12:54 PM77 °FScattered clouds.5 mph58%30.01 "Hg10 mi
11:54 AM77 °FScattered clouds.9 mph56%30.01 "Hg10 mi
Weather by CustomWeather, © 2016

See weather overviewHow to use our weather pages